Regional Weather Roundup
Issued by NWS

Home | Current Version | Previous Version | Graphics & Text | Print | Product List | Glossary On
Versions: 1 2 3 4 5 6 7 8 9 10 11 12 13 14 15 16 17 18 19 20 21 22 23 24 25 26 27 28 29 30 31 32 33 34 35 36 37 38 39 40 41 42 43 44 45 46 47 48 49 50
764
ASUS44 KJAN 271510
RWRMS

MISSISSIPPI HOURLY WEATHER ROUNDUP
NATIONAL WEATHER SERVICE JACKSON MS
900 AM CST THU NOV 27 2014

NOTE: "FAIR: INDICATES FEW OR NO CLOUDS BELOW 12,000 FEET WITH NO
SIGNIFICANT WEATHER AND/OR OBSTRUCTIONS TO VISIBILITY.

MSZ001>002-007>008-010>013-018>021-025>028-034>036-271600-
NORTHWEST MISSISSIPPI

CITY           SKY/WX    TMP DP  RH WIND       PRES   REMARKS
CLARKSDALE     CLOUDY    39  30  70 N15       30.50S WCI  31
CLEVELAND      FAIR      40  32  71 N16G22    30.50R WCI  32
GREENWOOD      PTSUNNY   42  30  62 N13       30.49R
GREENVILLE     CLOUDY    41  30  65 N13       30.51R
GRENADA        CLOUDY    39  32  75 NW6       30.49R WCI  35
OLIVE BRANCH   CLOUDY    37  32  81 N12G20    30.47R WCI  30
OXFORD         CLOUDY    37  27  65 N10G16    30.48R WCI  30
TUNICA         MOSUNNY   41  32  70 N12       30.49S
$$

MSZ003>006-009-014>017-022>024-029>033-037>039-271600-
NORTHEAST MISSISSIPPI

CITY           SKY/WX    TMP DP  RH WIND       PRES   REMARKS
COLUMBUS AFB   PTSUNNY   42  30  61 N17G24    30.44R
CORINTH        CLOUDY    39  30  70 NW9       30.43R WCI  33
GOLDN TRIANGLE PTSUNNY   43  30  61 NW9       30.43R
STARKVILLE     CLOUDY    41  32  70 NW8       30.46R
TUPELO         CLOUDY    40  29  64 MISG      30.45R
$$

MSZ040-058-271600-
CENTRAL MISSISSIPPI

CITY           SKY/WX    TMP DP  RH WIND       PRES   REMARKS
JACKSON INTL   SUNNY     46  30  53 N13       30.48R
JACKSON HAWKNS SUNNY     44  28  53 N12G17    30.48R
MERIDIAN KEY   SUNNY     44  31  60 N16       30.44R
MERIDIAN NAS   SUNNY     44  30  57 N18       30.45R
RAYMOND        FAIR      45  39  81 NW9       30.49R
VICKSBURG      SUNNY     45  31  58 N17       30.51R
$$

MSZ059>079-271600-
SOUTH MISSISSIPPI

CITY           SKY/WX    TMP DP  RH WIND       PRES   REMARKS
BROOKHAVEN     FAIR      45  32  61 NW10      30.48R
HATTIESBURG    SUNNY     48  32  53 N13G21    30.45R
MCCOMB         SUNNY     48  30  49 N13       30.45R
NATCHEZ        SUNNY     46  28  49 N13       30.50R
PINE BELT      SUNNY     46  30  53 N12       30.45R
$$

MSZ080>082-271600-
COASTAL MISSISSIPPI

CITY           SKY/WX    TMP DP  RH WIND       PRES   REMARKS
BAY ST LOUIS   SUNNY     50  32  50 N13G18    30.43R
BILOXI         SUNNY     52  35  51 N9G18     30.41R
PASCAGOULA     SUNNY     52  35  52 N15G23    30.40R
GULFPORT       SUNNY     51  35  54 N10       30.41R
$$



USA.gov is the U.S. government's official web portal to all federal, state and local government web resources and services.